This is the latest recevied weather packets stored in our database for station/object N9PBY-2. If no packets are shown the sender has not sent any weather packets the latest 10 day(s).
| Time | Temp. | Humidity | Pressure | Rain* | Wind** | Luminosity | Snow |
|---|---|---|---|---|---|---|---|
| 1777913406 | 24.44° C | 20% | 997.2 hPa | 0 mm | - | - | - |
| 1777912807 | 23.89° C | 19% | 997.2 hPa | 0 mm | - | - | - |
| 1777912206 | 23.89° C | 21% | 997.5 hPa | 0 mm | - | - | - |
| 1777911606 | 23.89° C | 23% | 997.5 hPa | 0 mm | - | - | - |
| 1777911006 | 23.89° C | 23% | 997.8 hPa | 0 mm | - | - | - |
| 1777910407 | 23.33° C | 21% | 997.9 hPa | 0 mm | - | - | - |
| 1777909806 | 23.33° C | 23% | 998 hPa | 0 mm | - | - | - |
| 1777909207 | 22.78° C | 23% | 998.2 hPa | 0 mm | - | - | - |
| 1777908607 | 22.78° C | 24% | 998.4 hPa | 0 mm | - | - | - |
| 1777908007 | 22.22° C | 25% | 998.4 hPa | 0 mm | - | - | - |
| 1777907407 | 21.67° C | 23% | 998.5 hPa | 0 mm | - | - | - |
| 1777906806 | 21.67° C | 23% | 998.6 hPa | 0 mm | - | - | - |
| 1777906207 | 21.67° C | 25% | 998.9 hPa | 0 mm | - | - | - |
| 1777905606 | 21.11° C | 26% | 999.1 hPa | 0 mm | - | - | - |
| 1777905006 | 21.11° C | 25% | 999.2 hPa | 0 mm | - | - | - |
| 1777904406 | 20.56° C | 25% | 999.2 hPa | 0 mm | - | - | - |
| 1777903806 | 20° C | 25% | 999.3 hPa | 0 mm | - | - | - |
| 1777903206 | 19.44° C | 28% | 999.5 hPa | 0 mm | - | - | - |
| 1777902606 | 18.89° C | 30% | 999.6 hPa | 0 mm | - | - | - |
| 1777902006 | 18.33° C | 31% | 999.8 hPa | 0 mm | - | - | - |
| 1777901407 | 17.78° C | 34% | 1000 hPa | 0 mm | - | - | - |
| 1777900807 | 17.22° C | 35% | 1000.1 hPa | 0 mm | - | - | - |
| 1777900207 | 16.67° C | 38% | 1000.2 hPa | 0 mm | - | - | - |
| 1777899606 | 15.56° C | 39% | 1000.5 hPa | 0 mm | - | - | - |
| 1777899006 | 15° C | 42% | 1000.5 hPa | 0 mm | - | - | - |
* Rain latest hour (hover to see other rain measurements)
** Current wind speed in m/s (hover to see current wind gust speed)